When you browse on this site, cookies collect data to enhance your experience and personalize the content and advertising you see.
Visit our Privacy Policy to learn more. By continuing to use the site, you agree to this use of cookies and data.
  • In Lithuania
  • List of Countries
  • For 7 days
  • Water Temperature
  • Weather Map
  • Weather Widgets
  • user-avatar
    Login

    Hourly Weather Gold Coast

    Today, 24 August, Saturday

    Time Temperature Precipitation Wind Pressure Humidity
    00:00 +11°C° 0 mm 3 mps 764 mmHg 91%
    01:00 +10°C° 0 mm 3 mps 764 mmHg 92%
    02:00 +10°C° 0 mm 3 mps 764 mmHg 92%
    03:00 +10°C° 0 mm 3 mps 764 mmHg 92%
    04:00 +10°C° 0 mm 2 mps 764 mmHg 92%
    05:00 +10°C° 0 mm 2 mps 764 mmHg 90%
    06:00 +12°C° 0 mm 2 mps 764 mmHg 88%
    07:00 +12°C° 0 mm 2 mps 765 mmHg 86%
    08:00 +15°C° 0 mm 1 mps 765 mmHg 73%
    09:00 +19°C° 0 mm 1 mps 764 mmHg 60%
    10:00 +23°C° 0 mm 1 mps 764 mmHg 47%
    11:00 +23°C° 0 mm 1 mps 763 mmHg 46%
    12:00 +23°C° 0 mm 2 mps 763 mmHg 46%
    13:00 +24°C° 0 mm 3 mps 762 mmHg 45%
    14:00 +22°C° 0 mm 3 mps 762 mmHg 47%
    15:00 +21°C° 0 mm 4 mps 761 mmHg 48%
    16:00 +21°C° 0 mm 4 mps 761 mmHg 50%
    17:00 +18°C° 0 mm 4 mps 761 mmHg 61%
    18:00 +16°C° 0 mm 3 mps 762 mmHg 71%
    19:00 +13°C° 0 mm 3 mps 762 mmHg 81%
    20:00 +12°C° 0 mm 3 mps 762 mmHg 83%
    21:00 +12°C° 0 mm 3 mps 762 mmHg 85%
    22:00 +11°C° 0 mm 3 mps 762 mmHg 87%
    23:00 +11°C° 0 mm 3 mps 762 mmHg 87%

    Tomorrow, 25 August, Sunday

    Time Temperature Precipitation Wind Pressure Humidity
    00:00 +11°C° 0 mm 3 mps 761 mmHg 87%
    01:00 +12°C° 0 mm 2 mps 761 mmHg 88%
    02:00 +11°C° 0 mm 3 mps 761 mmHg 88%
    03:00 +11°C° 0 mm 3 mps 761 mmHg 88%
    04:00 +10°C° 0 mm 3 mps 761 mmHg 88%
    05:00 +11°C° 0 mm 3 mps 761 mmHg 86%
    06:00 +11°C° 0 mm 3 mps 761 mmHg 84%
    07:00 +11°C° 0 mm 3 mps 762 mmHg 83%
    08:00 +16°C° 0 mm 3 mps 761 mmHg 71%
    09:00 +19°C° 0 mm 3 mps 761 mmHg 59%
    10:00 +22°C° 0 mm 3 mps 761 mmHg 47%
    11:00 +23°C° 0 mm 4 mps 760 mmHg 44%
    12:00 +25°C° 0 mm 4 mps 760 mmHg 40%
    13:00 +26°C° 0 mm 4 mps 759 mmHg 37%
    14:00 +26°C° 0 mm 4 mps 758 mmHg 39%
    15:00 +25°C° 0 mm 4 mps 758 mmHg 41%
    16:00 +25°C° 0 mm 4 mps 758 mmHg 44%
    17:00 +22°C° 0 mm 4 mps 758 mmHg 52%
    18:00 +20°C° 0 mm 4 mps 758 mmHg 60%
    19:00 +18°C° 0 mm 3 mps 759 mmHg 68%
    20:00 +17°C° 0 mm 3 mps 759 mmHg 71%
    21:00 +16°C° 0 mm 3 mps 759 mmHg 75%
    22:00 +14°C° 0 mm 3 mps 760 mmHg 78%
    23:00 +14°C° 0 mm 3 mps 759 mmHg 80%

    Day after tomorrow, 26 August, Monday

    Time Temperature Precipitation Wind Pressure Humidity
    00:00 +13°C° 0 mm 3 mps 759 mmHg 81%
    01:00 +13°C° 0 mm 3 mps 759 mmHg 83%
    02:00 +12°C° 0 mm 3 mps 759 mmHg 81%
    03:00 +13°C° 0 mm 2 mps 759 mmHg 80%
    04:00 +13°C° 0 mm 2 mps 759 mmHg 79%
    05:00 +14°C° 0 mm 2 mps 759 mmHg 77%
    06:00 +14°C° 0 mm 2 mps 760 mmHg 75%
    07:00 +15°C° 0 mm 2 mps 760 mmHg 74%
    08:00 +19°C° 0 mm 1 mps 760 mmHg 62%
    09:00 +23°C° 0 mm 1 mps 760 mmHg 50%
    10:00 +26°C° 0 mm 1 mps 760 mmHg 38%
    11:00 +26°C° 0 mm 2 mps 760 mmHg 38%
    12:00 +26°C° 0 mm 2 mps 759 mmHg 39%
    13:00 +25°C° 0 mm 3 mps 758 mmHg 40%
    14:00 +24°C° 0 mm 3 mps 758 mmHg 47%
    15:00 +22°C° 0 mm 4 mps 758 mmHg 54%
    16:00 +21°C° 0 mm 4 mps 758 mmHg 61%
    17:00 +20°C° 0.1 mm 4 mps 759 mmHg 69%
    18:00 +18°C° 0.1 mm 3 mps 759 mmHg 76%
    19:00 +17°C° 0.1 mm 3 mps 760 mmHg 83%
    20:00 +16°C° 0.1 mm 3 mps 760 mmHg 86%
    21:00 +14°C° 0.1 mm 3 mps 761 mmHg 89%
    22:00 +14°C° 0.1 mm 2 mps 761 mmHg 92%
    23:00 +14°C° 0 mm 2 mps 761 mmHg 93%

    27 August, Tuesday

    Time Temperature Precipitation Wind Pressure Humidity
    00:00 +14°C° 0 mm 2 mps 761 mmHg 93%
    01:00 +13°C° 0 mm 2 mps 761 mmHg 94%
    02:00 +13°C° 0 mm 2 mps 761 mmHg 93%
    03:00 +13°C° 0 mm 2 mps 761 mmHg 93%
    04:00 +13°C° 0 mm 2 mps 760 mmHg 92%
    05:00 +13°C° 0 mm 2 mps 761 mmHg 90%
    06:00 +14°C° 0 mm 2 mps 762 mmHg 87%
    07:00 +14°C° 0 mm 2 mps 762 mmHg 84%
    08:00 +17°C° 0 mm 2 mps 762 mmHg 70%
    09:00 +21°C° 0 mm 2 mps 762 mmHg 56%
    10:00 +25°C° 0 mm 2 mps 762 mmHg 43%
    11:00 +25°C° 0 mm 2 mps 762 mmHg 41%
    12:00 +26°C° 0 mm 3 mps 761 mmHg 39%
    13:00 +26°C° 0 mm 3 mps 760 mmHg 37%
    14:00 +25°C° 0 mm 3 mps 760 mmHg 43%
    15:00 +22°C° 0 mm 3 mps 760 mmHg 50%
    16:00 +21°C° 0 mm 3 mps 760 mmHg 56%
    17:00 +20°C° 0.1 mm 3 mps 761 mmHg 63%
    18:00 +18°C° 0.1 mm 2 mps 761 mmHg 70%
    19:00 +18°C° 0.1 mm 1 mps 762 mmHg 78%
    20:00 +16°C° 0.1 mm 1 mps 762 mmHg 82%
    21:00 +15°C° 0.1 mm 1 mps 762 mmHg 86%
    22:00 +14°C° 0.1 mm 1 mps 762 mmHg 90%
    23:00 +14°C° 0.3 mm 1 mps 762 mmHg 90%

    28 August, Wednesday

    Time Temperature Precipitation Wind Pressure Humidity
    00:00 +14°C° 0.3 mm 1 mps 762 mmHg 90%
    01:00 +13°C° 0.3 mm 1 mps 762 mmHg 90%
    02:00 +13°C° 0.1 mm 1 mps 762 mmHg 90%
    03:00 +13°C° 0.1 mm 1 mps 761 mmHg 90%
    04:00 +13°C° 0.1 mm 1 mps 761 mmHg 90%
    05:00 +14°C° 0 mm 1 mps 762 mmHg 87%
    06:00 +14°C° 0 mm 1 mps 762 mmHg 84%
    07:00 +15°C° 0 mm 1 mps 762 mmHg 81%
    08:00 +19°C° 0 mm 1 mps 762 mmHg 68%
    09:00 +22°C° 0 mm 1 mps 762 mmHg 55%
    10:00 +25°C° 0 mm 1 mps 762 mmHg 43%
    11:00 +25°C° 0.1 mm 2 mps 761 mmHg 47%
    12:00 +24°C° 0.1 mm 2 mps 761 mmHg 51%
    13:00 +22°C° 0.1 mm 3 mps 760 mmHg 54%
    14:00 +22°C° 0.4 mm 3 mps 760 mmHg 60%
    15:00 +21°C° 0.4 mm 2 mps 759 mmHg 66%
    16:00 +20°C° 0.4 mm 2 mps 759 mmHg 72%
    17:00 +18°C° 0.8 mm 2 mps 760 mmHg 79%
    18:00 +18°C° 0.8 mm 1 mps 760 mmHg 85%
    19:00 +16°C° 0.8 mm 1 mps 761 mmHg 92%
    20:00 +15°C° 0.2 mm 1 mps 761 mmHg 93%
    21:00 +15°C° 0.2 mm 1 mps 761 mmHg 93%
    22:00 +15°C° 0.2 mm 1 mps 761 mmHg 94%
    23:00 +14°C° 0 mm 2 mps 761 mmHg 94%

    29 August, Thursday

    Time Temperature Precipitation Wind Pressure Humidity
    00:00 +14°C° 0 mm 2 mps 760 mmHg 94%
    01:00 +13°C° 0 mm 2 mps 760 mmHg 95%
    02:00 +13°C° 0 mm 2 mps 760 mmHg 94%
    03:00 +13°C° 0 mm 2 mps 759 mmHg 94%
    04:00 +12°C° 0 mm 3 mps 759 mmHg 93%
    05:00 +14°C° 0 mm 2 mps 759 mmHg 92%
    06:00 +14°C° 0 mm 2 mps 760 mmHg 91%
    07:00 +14°C° 0 mm 2 mps 760 mmHg 90%
    08:00 +17°C° 0 mm 2 mps 760 mmHg 73%
    09:00 +20°C° 0 mm 2 mps 760 mmHg 55%
    10:00 +24°C° 0 mm 2 mps 759 mmHg 38%
    11:00 +24°C° 0 mm 2 mps 759 mmHg 35%
    12:00 +25°C° 0 mm 3 mps 758 mmHg 33%
    13:00 +26°C° 0 mm 3 mps 758 mmHg 31%
    14:00 +25°C° 0 mm 3 mps 757 mmHg 33%
    15:00 +25°C° 0 mm 3 mps 757 mmHg 34%
    16:00 +24°C° 0 mm 3 mps 757 mmHg 36%
    17:00 +20°C° 0 mm 3 mps 757 mmHg 49%
    18:00 +17°C° 0 mm 2 mps 758 mmHg 62%
    19:00 +14°C° 0 mm 2 mps 758 mmHg 75%
    20:00 +14°C° 0 mm 2 mps 759 mmHg 70%
    21:00 +13°C° 0 mm 2 mps 759 mmHg 65%
    22:00 +12°C° 0 mm 3 mps 759 mmHg 60%
    23:00 +11°C° 0 mm 3 mps 759 mmHg 59%
    Show more